DAL2169 KMSN-KLSE

Flight info

Callsign DAL2169
Flight time N/A
Altitude 12000
Route DLL
Aircraft E110/L-SDFGHRY/S

Departure

Time 2026-04-17 23:38
Airport Dane County Regional Truax Field (KMSN)

Arrival

Time N/A
Airport La Crosse Regional Airport (KLSE)
Time Latitude Longitude Altitude Speed Heading
2026-04-17 23:21 43.13532 -89.34506 866 ft 0 kts 272°
2026-04-17 23:24 43.13532 -89.34508 885 ft 1 kts 272°
2026-04-17 23:24 43.13532 -89.34517 816 ft 2 kts 272°
2026-04-17 23:25 43.13532 -89.34509 851 ft 2 kts 272°
2026-04-17 23:25 43.13532 -89.34491 820 ft 2 kts 272°
2026-04-17 23:25 43.13531 -89.34473 887 ft 2 kts 272°
2026-04-17 23:26 43.13526 -89.34457 894 ft 2 kts 309°
2026-04-17 23:26 43.13516 -89.34446 873 ft 2 kts 327°
2026-04-17 23:26 43.13505 -89.34437 866 ft 2 kts 328°
2026-04-17 23:26 43.13493 -89.34427 866 ft 2 kts 329°
2026-04-17 23:27 43.13485 -89.34423 863 ft 0 kts 348°
2026-04-17 23:28 43.13502 -89.34424 887 ft 4 kts 357°
2026-04-17 23:28 43.13528 -89.34423 862 ft 3 kts 16°
2026-04-17 23:28 43.13543 -89.34382 866 ft 5 kts 84°
2026-04-17 23:29 43.13543 -89.34374 866 ft 3 kts 84°
2026-04-17 23:29 43.13558 -89.34332 861 ft 7 kts 42°
2026-04-17 23:29 43.13609 -89.34313 857 ft 8 kts
2026-04-17 23:29 43.13670 -89.34310 865 ft 9 kts
2026-04-17 23:30 43.13731 -89.34307 865 ft 9 kts
2026-04-17 23:30 43.13798 -89.34304 865 ft 10 kts
2026-04-17 23:30 43.13867 -89.34302 858 ft 10 kts
2026-04-17 23:30 43.13934 -89.34298 866 ft 9 kts
2026-04-17 23:31 43.13997 -89.34295 866 ft 9 kts
2026-04-17 23:31 43.14038 -89.34298 860 ft 6 kts 350°
2026-04-17 23:31 43.14082 -89.34312 857 ft 7 kts 345°
2026-04-17 23:31 43.14124 -89.34336 857 ft 6 kts 338°
2026-04-17 23:32 43.14166 -89.34352 866 ft 7 kts 351°
2026-04-17 23:32 43.14219 -89.34355 860 ft 9 kts
2026-04-17 23:32 43.14284 -89.34352 863 ft 10 kts
2026-04-17 23:32 43.14355 -89.34349 865 ft 11 kts
2026-04-17 23:33 43.14432 -89.34345 865 ft 11 kts
2026-04-17 23:33 43.14508 -89.34342 865 ft 11 kts
2026-04-17 23:33 43.14589 -89.34340 865 ft 12 kts
2026-04-17 23:33 43.14671 -89.34324 861 ft 12 kts 13°
2026-04-17 23:34 43.14756 -89.34299 860 ft 13 kts 13°
2026-04-17 23:34 43.14812 -89.34282 864 ft 8 kts 13°
2026-04-17 23:34 43.14872 -89.34263 853 ft 9 kts 16°
2026-04-17 23:34 43.14903 -89.34218 863 ft 1 kts 77°
2026-04-17 23:37 43.14904 -89.34192 855 ft 6 kts 91°
2026-04-17 23:37 43.14887 -89.34131 863 ft 8 kts 133°
2026-04-17 23:37 43.14835 -89.34108 864 ft 9 kts 180°
2026-04-17 23:38 43.14821 -89.34109 864 ft 0 kts 181°
2026-04-17 23:38 43.14495 -89.34125 865 ft 92 kts 182°
2026-04-17 23:38 43.13680 -89.34069 1091 ft 129 kts 179°
2026-04-17 23:38 43.12780 -89.34070 1560 ft 119 kts 184°
2026-04-17 23:39 43.11941 -89.34151 1790 ft 136 kts 181°
2026-04-17 23:39 43.10942 -89.34134 2102 ft 135 kts 181°
2026-04-17 23:39 43.09990 -89.33983 2428 ft 147 kts 164°
2026-04-17 23:39 43.09287 -89.32998 2917 ft 157 kts 117°
2026-04-17 23:40 43.08920 -89.31623 3392 ft 148 kts 133°
2026-04-17 23:40 43.08058 -89.30682 2939 ft 183 kts 156°
2026-04-17 23:40 43.06915 -89.29865 3185 ft 156 kts 162°
2026-04-17 23:40 43.06068 -89.29264 3963 ft 137 kts 159°
2026-04-17 23:41 43.05161 -89.28464 3855 ft 167 kts 156°
2026-04-17 23:41 43.04172 -89.27631 4082 ft 166 kts 158°
2026-04-17 23:41 43.03191 -89.26851 4317 ft 159 kts 160°
2026-04-17 23:41 43.02410 -89.25825 4539 ft 185 kts 89°
2026-04-17 23:42 43.03157 -89.24340 4783 ft 194 kts 54°
2026-04-17 23:42 43.04106 -89.23005 5024 ft 199 kts 47°
2026-04-17 23:42 43.05154 -89.21727 5276 ft 205 kts 34°
2026-04-17 23:42 43.06399 -89.20854 5540 ft 203 kts 21°
2026-04-17 23:43 43.07659 -89.19995 5794 ft 201 kts 11°
2026-04-17 23:43 43.08964 -89.19413 6082 ft 191 kts 355°
2026-04-17 23:43 43.10299 -89.19057 6281 ft 200 kts
2026-04-17 23:43 43.11631 -89.18674 6553 ft 190 kts 346°
2026-04-17 23:44 43.12787 -89.19088 6925 ft 158 kts 305°
2026-04-17 23:44 43.13756 -89.19795 7216 ft 182 kts 356°
2026-04-17 23:44 43.14853 -89.18838 7521 ft 191 kts 22°
2026-04-17 23:44 43.15900 -89.19099 7867 ft 158 kts 318°
2026-04-17 23:45 43.16757 -89.20338 8709 ft 101 kts 179°
2026-04-17 23:45 43.16018 -89.20206 8946 ft 123 kts 169°
2026-04-17 23:45 43.15755 -89.18888 9187 ft 169 kts 102°
2026-04-17 23:46 43.15421 -89.17330 9360 ft 172 kts 130°
2026-04-17 23:46 43.14641 -89.16139 9582 ft 167 kts 155°
2026-04-17 23:46 43.13643 -89.15359 9791 ft 163 kts 172°
2026-04-17 23:46 43.12563 -89.15190 10003 ft 154 kts 193°
2026-04-17 23:47 43.11564 -89.15452 10203 ft 152 kts 200°
2026-04-17 23:47 43.10616 -89.16019 10414 ft 151 kts 207°
2026-04-17 23:47 43.09538 -89.16150 10614 ft 162 kts 185°
2026-04-17 23:47 43.08429 -89.16123 10821 ft 152 kts 204°
2026-04-17 23:48 43.07927 -89.17205 11108 ft 148 kts 269°
2026-04-17 23:48 43.08266 -89.18576 11357 ft 157 kts 289°
2026-04-17 23:48 43.08862 -89.19879 11571 ft 165 kts 299°
2026-04-17 23:48 43.09590 -89.21126 11785 ft 172 kts 303°
2026-04-17 23:49 43.10474 -89.22239 11994 ft 176 kts 308°
2026-04-17 23:49 43.11442 -89.23336 12053 ft 187 kts 313°
2026-04-17 23:49 43.12544 -89.24374 12068 ft 197 kts 318°
2026-04-17 23:49 43.13844 -89.24113 12103 ft 230 kts 53°